RH
40 40 46 53 56 55 48 39 37 36 35 37 38 39 39 39 42 44 44 46 48 49 51 52 53 54 56 60 61 63 67 70 68 61 61 64 65 66 65 66 71 74
39 38 41 48 52 53 49 39 35 33 30 30 31 33 37 39 42 45 45 44 45 46 47 49 51 52 53 56 57 58 60 62 61 58 58 61 62 63 64 67 70 72
37 38 39 41 42 43 43 37 33 30 26 25 25 26 30 34 38 41 42 42 41 42 44 45 47 49 52 54 54 54 55 55 55 56 56 56 59 61 61 65 66 66
34 35 36 35 32 32 35 35 33 29 26 24 23 22 23 25 28 30 31 31 31 35 41 44 45 46 48 51 53 53 52 51 53 55 55 53 54 56 57 60 63 63
31 32 33 33 31 29 32 34 32 29 27 24 22 22 21 22 23 23 24 25 24 27 33 39 43 45 46 48 49 50 49 48 49 52 52 50 49 50 51 53 58 61
30 31 32 32 31 29 30 30 29 28 26 24 23 22 22 22 22 22 22 23 23 23 26 31 37 42 46 47 47 46 46 45 46 47 47 47 45 45 47 49 51 54
28 27 29 30 30 29 27 26 26 26 25 24 24 23 23 23 22 22 22 21 21 22 24 27 30 35 40 45 47 46 44 43 44 45 45 44 44 43 43 45 46 46
32 26 24 26 28 28 27 25 25 25 24 24 24 24 23 23 22 23 22 21 20 20 22 25 29 32 35 38 42 44 45 44 43 44 44 43 43 42 41 42 42 42
44 36 27 23 24 25 25 25 24 24 24 24 24 24 23 23 23 23 22 21 20 20 21 23 27 33 36 36 35 37 40 42 43 43 43 42 41 40 39 40 40 40
54 48 39 30 23 21 22 22 23 23 24 24 23 23 23 23 23 23 23 22 20 20 20 22 25 29 34 36 35 33 34 35 38 41 42 42 41 39 39 40 39 39
59 55 50 40 29 22 19 20 21 21 22 22 22 22 23 22 22 22 22 22 20 20 20 22 24 26 29 32 33 33 32 31 33 36 39 41 40 40 40 40 40 38
64 60 55 49 39 29 22 20 21 21 21 21 20 21 21 21 21 21 21 20 19 19 20 21 23 25 28 30 32 34 34 33 33 33 35 37 39 40 39 39 39 37
68 64 61 56 49 40 31 26 23 23 22 21 19 19 19 19 19 19 19 19 18 18 19 20 23 25 28 30 33 37 38 37 34 33 33 34 35 37 39 39 38 36
69 68 66 62 58 51 43 36 31 28 26 24 22 20 19 18 18 18 18 18 18 18 19 20 23 27 29 32 35 39 42 42 39 35 33 34 34 35 38 39 37 37
71 71 70 68 66 62 56 48 41 35 32 30 28 25 22 20 19 19 19 19 19 20 20 21 25 29 32 34 36 40 43 44 42 39 34 33 34 34 36 37 37 36
74 74 73 73 72 69 67 61 53 46 41 37 35 32 29 26 24 23 23 22 23 24 24 26 29 32 35 35 37 39 43 44 43 41 38 35 34 34 34 36 35 35
76 76 76 76 75 75 75 72 66 59 51 45 42 39 36 34 31 29 28 28 28 29 30 31 33 34 35 36 38 40 44 47 46 43 41 39 38 37 34 33 33 34
77 78 79 79 78 79 80 78 76 71 64 56 51 46 44 41 38 36 34 34 34 34 35 37 37 37 37 36 38 41 46 50 49 45 44 43 42 41 38 34 33 33
78 80 81 81 81 82 82 82 82 78 73 67 59 53 51 49 45 43 41 40 40 40 41 41 41 40 40 39 38 41 46 51 52 49 46 44 44 43 42 39 36 34
82 82 81 80 82 84 85 85 84 81 77 73 67 62 59 56 53 50 48 47 46 46 46 47 46 44 42 41 39 41 46 51 53 52 50 48 47 46 45 43 40 38
77 80 80 81 84 86 86 86 84 81 80 77 74 70 65 61 59 57 55 53 51 51 52 52 50 47 44 42 40 41 47 52 55 56 55 54 52 50 50 47 45 44
68 71 75 79 83 85 86 85 84 82 81 80 78 75 71 67 65 63 61 59 57 58 59 57 53 49 47 45 41 43 50 56 59 60 61 59 56 53 51 49 48 47
66 68 71 74 79 82 82 82 82 82 81 81 80 78 75 72 69 67 65 64 64 64 64 62 56 51 49 46 44 48 56 61 63 63 63 62 57 52 50 49 48 47
66 67 69 71 75 76 75 77 79 80 80 80 79 78 77 74 72 71 70 69 69 69 67 65 60 55 52 50 49 53 60 65 65 64 63 62 58 53 50 48 47 46
64 63 64 67 71 73 74 76 78 78 79 78 77 77 76 76 74 73 73 72 72 72 71 69 65 60 58 56 54 57 64 68 70 68 66 62 56 51 48 46 45 45
61 60 59 62 66 70 74 77 77 78 79 77 76 76 76 77 76 75 74 74 74 75 74 72 70 67 63 61 58 59 64 69 73 73 68 62 55 50 47 45 44 42
Wind_Speed
37 36 35 34 33 31 31 31 28 26 25 24 23 22 20 18 18 17 16 14 14 14 14 14 13 13 13 12 13 12 12 11 11 10 11 11 10 11 12 12 13 12
39 38 37 36 35 33 32 31 29 27 25 23 22 21 20 18 17 17 16 15 15 15 15 15 14 14 14 14 14 13 12 12 11 12 12 12 11 11 11 12 13 13
41 40 40 39 37 35 33 32 30 28 25 24 22 21 20 19 18 17 16 16 15 15 16 16 15 15 15 14 14 14 13 12 11 11 11 12 12 12 11 11 13 13
44 43 42 41 39 36 34 33 32 30 28 26 24 22 21 20 20 19 18 17 17 17 17 17 16 16 15 15 15 15 15 14 13 13 12 12 13 13 13 12 13 13
45 44 44 43 41 38 36 36 34 33 31 29 26 24 23 22 21 21 20 19 18 18 18 18 17 17 17 17 17 16 16 16 15 15 15 14 13 13 14 13 13 14
47 46 45 45 44 41 40 38 37 36 34 32 30 28 26 24 24 23 22 22 21 20 19 19 19 18 18 18 18 18 17 17 16 16 17 16 15 14 14 14 14 14
48 47 46 46 45 44 42 41 40 39 37 35 33 31 29 28 26 25 24 24 24 23 21 20 20 20 20 20 19 19 19 18 18 18 18 17 16 16 16 15 15 15
50 48 47 46 46 46 44 43 42 41 40 38 36 35 33 31 30 28 27 26 26 25 24 22 21 21 22 22 22 21 20 19 19 20 19 18 18 18 17 17 16 16
51 50 49 48 47 47 46 45 44 42 41 40 39 37 36 34 33 31 29 28 28 27 26 24 22 21 22 23 24 23 22 20 20 20 20 19 19 19 19 18 18 17
51 52 51 50 49 48 47 46 45 44 43 42 41 40 39 37 35 34 32 31 30 30 29 27 25 24 23 23 24 25 24 23 22 21 20 20 19 19 19 18 18 18
50 52 52 53 51 50 48 47 47 46 45 44 43 42 41 39 38 36 35 34 33 32 31 30 28 26 25 24 24 24 25 25 24 23 22 21 20 19 19 18 18 19
49 51 52 53 53 51 50 48 48 48 48 46 45 44 43 41 40 39 38 36 35 34 33 32 30 29 28 27 26 25 25 25 25 24 23 23 22 21 19 18 18 19
49 49 50 52 53 53 51 50 49 50 50 49 47 46 45 43 42 41 39 38 37 36 35 34 33 32 31 30 29 28 27 26 26 25 24 24 24 23 22 20 19 18
50 48 47 49 51 52 52 51 51 51 51 51 50 49 47 46 44 42 41 40 39 38 37 36 36 35 34 32 32 31 30 28 27 26 25 24 24 24 24 23 22 20
49 48 47 47 48 50 51 52 52 52 51 52 52 51 50 48 46 44 43 42 41 40 39 39 38 37 36 34 33 32 32 31 29 28 27 26 25 25 25 25 24 23
49 48 47 47 47 48 50 51 51 51 52 52 52 52 51 50 49 47 46 45 44 42 41 40 40 39 37 35 34 33 33 32 31 29 28 27 27 26 26 26 25 24
48 48 47 46 46 47 48 50 50 51 51 52 52 52 52 51 50 49 48 47 45 44 43 41 41 40 38 36 34 33 33 33 33 31 29 28 28 27 27 26 26 25
47 47 46 46 45 45 46 47 49 50 51 51 52 52 51 51 51 50 49 48 46 45 44 43 41 40 38 36 34 34 34 34 34 33 31 30 28 27 27 26 26 26
46 46 45 45 44 43 43 44 47 49 50 51 51 51 51 51 51 51 49 48 47 46 45 44 42 40 39 37 35 34 34 35 35 34 33 31 30 28 27 26 26 26
44 44 45 45 44 43 42 42 44 46 48 49 50 50 50 51 51 51 50 49 48 47 46 44 43 41 39 37 36 34 34 34 35 35 34 33 31 30 28 27 26 26
45 45 45 45 44 44 43 43 42 44 46 48 49 50 51 51 51 51 51 50 49 47 46 45 43 41 40 38 36 34 34 34 35 35 36 35 34 32 30 29 27 26
48 48 47 46 45 45 45 45 44 43 44 46 47 48 49 50 51 51 51 50 49 48 47 45 43 41 40 38 36 35 34 34 35 35 36 37 35 34 32 31 29 28
49 49 48 47 47 46 47 47 46 44 43 44 46 47 48 49 50 50 50 50 50 49 48 46 44 41 40 38 37 36 35 35 35 35 36 37 36 35 34 32 31 30
48 48 47 47 47 47 48 48 47 45 44 43 44 46 48 49 49 49 49 49 50 50 49 47 44 42 40 39 37 36 36 35 34 34 35 35 36 35 34 34 32 31
46 46 46 47 48 48 48 48 47 46 44 43 43 45 47 48 48 48 48 49 49 49 49 47 46 43 41 40 38 37 37 36 35 34 34 34 34 34 34 34 33 32
44 45 45 47 49 49 48 48 47 46 45 44 43 44 45 46 47 48 48 48 48 49 48 48 47 45 43 41 39 38 38 37 36 36 35 34 34 33 34 34 34 32
Wind_Direction
209 208 207 207 209 211 212 210 209 208 205 203 203 206 207 203 200 203 206 205 205 205 206 207 206 204 205 205 209 210 204 204 208 208 209 210 207 206 203 193 183 182
209 211 211 210 210 212 213 211 210 211 210 208 206 205 205 204 202 202 205 205 206 209 209 210 210 208 207 208 214 220 218 213 209 208 212 212 210 212 211 206 197 193
211 211 212 214 214 213 213 213 213 214 214 213 210 205 203 203 204 204 205 206 208 210 212 213 213 212 211 211 215 222 225 225 221 218 219 216 213 213 213 214 211 204
212 213 214 217 218 217 214 214 215 216 217 218 216 212 208 207 209 210 211 213 213 212 213 215 216 216 215 215 217 220 224 228 230 230 230 225 219 218 215 216 218 215
213 214 215 218 221 220 218 217 218 219 220 222 222 220 218 216 216 217 218 219 219 218 216 215 217 218 218 219 220 222 224 227 229 231 233 232 228 225 221 219 219 221
215 215 216 218 221 222 221 221 222 223 223 225 225 225 224 224 224 224 225 226 227 226 223 220 219 219 219 221 224 226 226 227 229 231 233 235 234 232 228 226 224 226
216 216 217 218 221 224 224 224 225 226 227 228 228 228 228 228 229 229 231 233 233 232 231 227 223 222 222 223 224 227 228 228 229 232 235 237 237 236 233 230 229 230
218 217 218 219 221 224 226 226 227 228 229 230 231 231 231 231 232 232 234 236 236 236 236 234 231 228 226 226 227 228 229 230 230 231 235 236 236 238 237 234 234 233
221 219 219 220 221 223 226 227 228 229 231 232 233 234 235 235 235 235 236 237 238 239 239 239 238 235 233 232 230 229 230 231 232 233 235 235 236 238 240 239 239 238
224 223 221 221 222 224 226 227 229 231 232 233 234 235 236 237 238 238 238 239 239 239 240 241 241 241 240 238 235 233 233 232 234 235 236 237 237 238 239 241 243 243
226 226 225 224 224 225 227 228 229 231 232 234 235 236 237 238 239 240 240 240 240 240 241 242 243 244 244 244 241 238 236 235 235 236 237 239 241 240 239 240 242 244
227 228 228 227 227 227 228 229 230 231 233 234 236 237 238 239 240 240 240 241 241 241 242 243 244 245 246 246 245 243 241 239 237 236 236 238 241 242 240 239 240 242
227 228 230 230 230 230 230 230 231 232 233 235 236 237 238 239 240 240 241 241 241 242 243 245 245 246 246 247 247 247 245 242 240 238 236 236 238 240 241 241 241 242
228 229 231 232 233 232 232 232 233 234 234 235 236 237 238 239 239 240 241 242 242 243 244 245 246 247 247 246 246 247 248 247 244 240 238 236 237 238 240 242 244 245
228 230 231 233 234 234 234 235 235 235 236 236 237 238 239 240 240 241 241 242 243 244 245 246 246 247 247 246 246 246 247 248 246 243 240 238 238 238 240 242 245 246
228 229 231 232 234 235 237 237 236 236 237 237 238 238 239 240 240 241 241 243 244 245 246 246 246 247 247 246 246 246 246 247 246 245 242 240 240 240 240 241 244 246
228 230 231 233 235 237 238 238 238 237 237 238 238 238 240 240 240 241 241 242 244 244 245 246 246 247 247 246 246 246 245 246 246 245 244 243 242 242 241 241 243 245
228 230 231 233 235 237 238 239 238 237 237 237 237 237 239 239 240 240 241 242 243 244 244 245 246 247 247 246 246 245 245 246 246 245 245 245 245 245 244 243 243 244
229 231 233 234 236 237 239 239 237 237 237 237 236 237 237 238 239 240 240 241 242 243 244 245 246 246 246 246 246 246 245 246 245 245 245 246 246 247 247 246 244 244
230 233 235 237 238 238 239 239 238 238 238 237 236 236 235 236 238 238 239 240 241 242 244 245 245 245 245 245 245 245 245 246 245 246 246 246 247 247 248 249 248 247
232 235 237 239 239 239 239 240 241 241 239 238 236 235 235 236 237 237 239 240 241 241 243 244 245 245 244 244 244 244 245 246 246 246 247 247 248 248 249 250 250 250
234 235 237 238 238 239 239 240 242 243 241 239 236 235 235 236 237 237 238 239 240 240 241 243 245 244 244 244 243 243 245 246 246 247 247 248 249 249 248 249 249 250
235 234 235 237 237 238 240 242 243 244 243 240 237 235 235 235 236 237 237 238 239 239 240 242 244 244 244 243 243 243 244 245 245 246 247 248 249 249 248 248 248 248
236 234 236 237 237 238 241 242 243 243 243 241 238 236 235 235 236 237 237 237 238 239 240 242 243 244 244 244 244 244 244 244 244 245 246 247 247 247 247 247 246 246
240 240 239 239 239 240 240 241 242 243 242 242 241 239 236 235 235 236 237 237 238 239 241 242 244 245 246 246 246 245 245 244 245 245 245 246 246 246 246 245 245 244
246 247 244 241 240 240 240 240 241 242 241 241 242 240 237 235 235 236 237 238 238 238 239 241 243 245 246 247 247 247 246 245 244 245 246 246 246 246 246 246 246 245